,,,PA_Meas_PMT16A,,PR_Meas_QMR101_102,,RH_Meas_QMH101,,SR_Meas_QMS101,,TA_Meas_QMH101,,GenWind,,GenWind,
date,time,status,PA,status,PR,status,RH,status,SR,status,TA,status,DirAvg,status,SpdAvg,
2009-10-25, 00:00:04,VALID,1011.39,VALID,0,VALID,91.9132,VALID,0,VALID,22.6614,VALID,88,VALID,1.39922,
2009-10-25, 00:01:04,VALID,1011.37,VALID,0,VALID,91.898,VALID,0,VALID,22.6809,VALID,73,VALID,1.32031,
2009-10-25, 00:02:04,VALID,1011.36,VALID,0,VALID,91.8751,VALID,0,VALID,22.6614,VALID,76,VALID,0.965625,
2009-10-25, 00:03:04,VALID,1011.37,VALID,0,VALID,91.8903,VALID,0,VALID,22.6614,VALID,93,VALID,0.776953,
2009-10-25, 00:04:04,VALID,1011.36,VALID,0,VALID,91.8903,VALID,0,VALID,22.6614,VALID,98,VALID,1.09727,
2009-10-25, 00:05:04,VALID,1011.36,VALID,0,VALID,91.8675,VALID,0,VALID,22.642,VALID,75,VALID,0.973437,
2009-10-25, 00:06:04,VALID,1011.36,VALID,0,VALID,91.8827,VALID,0,VALID,22.642,VALID,72,VALID,0.879687,
2009-10-25, 00:07:04,VALID,1011.37,VALID,0,VALID,91.898,VALID,0,VALID,22.642,VALID,81,VALID,1.66523,
2009-10-25, 00:08:04,VALID,1011.36,VALID,0,VALID,91.9361,VALID,0,VALID,22.642,VALID,99,VALID,1.125,
2009-10-25, 00:09:04,VALID,1011.36,VALID,0,VALID,91.9208,VALID,0,VALID,22.642,VALID,90,VALID,1.32891,
2009-10-25, 00:10:04,VALID,1011.34,VALID,0,VALID,91.9132,VALID,0,VALID,22.642,VALID,91,VALID,1.26563,
2009-10-25, 00:11:04,VALID,1011.35,VALID,0,VALID,91.9132,VALID,0,VALID,22.6208,VALID,86,VALID,1.37266,
2009-10-25, 00:12:04,VALID,1011.3,VALID,0,VALID,91.9513,VALID,0.105969,VALID,22.6614,VALID,92,VALID,0.4875,
2009-10-25, 00:13:04,VALID,1011.31,VALID,0,VALID,91.9437,VALID,0.105969,VALID,22.642,VALID,101,VALID,1.59492,
2009-10-25, 00:14:04,VALID,1011.31,VALID,0,VALID,91.9285,VALID,0,VALID,22.6225,VALID,96,VALID,0.894922,
2009-10-25, 00:15:04,VALID,1011.28,VALID,0,VALID,91.9208,VALID,0,VALID,22.642,VALID,94,VALID,1.01602,
2009-10-25, 00:16:04,VALID,1011.27,VALID,0,VALID,91.9895,VALID,0,VALID,22.642,VALID,62,VALID,0.748438,
2009-10-25, 00:17:04,VALID,1011.23,VALID,0,VALID,91.9818,VALID,0,VALID,22.6225,VALID,100,VALID,1.28906,
2009-10-25, 00:18:04,VALID,1011.23,VALID,0,VALID,91.9666,VALID,0,VALID,22.6208,VALID,96,VALID,0.761328,
2009-10-25, 00:19:04,VALID,1011.24,VALID,0,VALID,91.9742,VALID,0,VALID,22.642,VALID,92,VALID,1.31992,
2009-10-25, 00:20:04,VALID,1011.25,VALID,0,VALID,91.959,VALID,0,VALID,22.6225,VALID,81,VALID,1.11055,
2009-10-25, 00:21:04,VALID,1011.24,VALID,0,VALID,91.9666,VALID,0,VALID,22.6225,VALID,72,VALID,0.833984,
2009-10-25, 00:22:04,VALID,1011.27,VALID,0,VALID,91.9513,VALID,0,VALID,22.6225,VALID,81,VALID,1.25078,
2009-10-25, 00:23:04,VALID,1011.26,VALID,0,VALID,91.959,VALID,0,VALID,22.6225,VALID,90,VALID,0.667188,
2009-10-25, 00:24:04,VALID,1011.26,VALID,0,VALID,91.9971,VALID,0,VALID,22.642,VALID,82,VALID,1.15195,
2009-10-25, 00:25:04,VALID,1011.27,VALID,0,VALID,91.9895,VALID,0,VALID,22.6225,VALID,78,VALID,1.11094,
2009-10-25, 00:26:04,VALID,1011.24,VALID,0,VALID,91.9818,VALID,0,VALID,22.642,VALID,93,VALID,0.421094,
2009-10-25, 00:27:04,VALID,1011.26,VALID,0,VALID,92.02,VALID,0,VALID,22.642,VALID,64,VALID,1.12422,
2009-10-25, 00:28:04,VALID,1011.27,VALID,0,VALID,91.9818,VALID,0,VALID,22.6225,VALID,70,VALID,1.10938,
2009-10-25, 00:29:04,VALID,1011.25,VALID,0,VALID,91.9361,VALID,0,VALID,22.6225,VALID,72,VALID,0.733984,
2009-10-25, 00:30:04,VALID,1011.26,VALID,0,VALID,91.9361,VALID,0,VALID,22.6225,VALID,69,VALID,0.671484,
2009-10-25, 00:31:04,VALID,1011.26,VALID,0,VALID,91.9513,VALID,0,VALID,22.642,VALID,92,VALID,0.714844,
2009-10-25, 00:32:04,VALID,1011.22,VALID,0,VALID,91.9818,VALID,0,VALID,22.6225,VALID,108,VALID,0.822266,
2009-10-25, 00:33:04,VALID,1011.21,VALID,0,VALID,91.9971,VALID,0,VALID,22.642,VALID,88,VALID,0.920313,
2009-10-25, 00:34:04,VALID,1011.18,VALID,0,VALID,92.02,VALID,0,VALID,22.642,VALID,88,VALID,1.65547,
2009-10-25, 00:35:04,VALID,1011.17,VALID,0,VALID,91.9971,VALID,0,VALID,22.642,VALID,75,VALID,0.744922,
2009-10-25, 00:36:04,VALID,1011.15,VALID,0,VALID,91.9971,VALID,0,VALID,22.6208,VALID,86,VALID,0.780078,
2009-10-25, 00:37:04,VALID,1011.14,VALID,0,VALID,91.9895,VALID,0.105969,VALID,22.6225,VALID,67,VALID,0.859766,
2009-10-25, 00:38:04,VALID,1011.12,VALID,0,VALID,91.9666,VALID,0,VALID,22.642,VALID,91,VALID,1.1543,
2009-10-25, 00:39:04,VALID,1011.12,VALID,0,VALID,91.9666,VALID,0,VALID,22.642,VALID,78,VALID,0.526563,
2009-10-25, 00:40:04,VALID,1011.12,VALID,0,VALID,91.9971,VALID,0,VALID,22.6225,VALID,47,VALID,0.898828,
2009-10-25, 00:41:04,VALID,1011.11,VALID,0,VALID,91.9971,VALID,0,VALID,22.6225,VALID,40,VALID,0.832031,
2009-10-25, 00:42:04,VALID,1011.09,VALID,0,VALID,92.0047,VALID,0,VALID,22.6225,VALID,75,VALID,0.446875,
2009-10-25, 00:43:04,VALID,1011.08,VALID,0,VALID,92.0123,VALID,0,VALID,22.6225,VALID,72,VALID,0.930859,
2009-10-25, 00:44:04,VALID,1011.07,VALID,0,VALID,91.9971,VALID,0,VALID,22.6225,VALID,60,VALID,0.708594,
2009-10-25, 00:45:04,VALID,1011.04,VALID,0,VALID,91.9971,VALID,0,VALID,22.6225,VALID,54,VALID,0.571484,
2009-10-25, 00:46:04,VALID,1011.02,VALID,0,VALID,91.9818,VALID,0,VALID,22.603,VALID,67,VALID,0.134375,
2009-10-25, 00:47:04,VALID,1011.05,VALID,0,VALID,92.0123,VALID,0,VALID,22.6225,VALID,68,VALID,0.308594,
2009-10-25, 00:48:04,VALID,1011.02,VALID,0,VALID,92.0276,VALID,0,VALID,22.6225,VALID,94,VALID,0.307031,
2009-10-25, 00:49:04,VALID,1011.01,VALID,0,VALID,92.0733,VALID,0,VALID,22.6225,VALID,20,VALID,0.226563,
2009-10-25, 00:50:04,VALID,1011,VALID,0,VALID,92.0733,VALID,0,VALID,22.6437,VALID,87,VALID,0.542969,
2009-10-25, 00:51:04,VALID,1011.01,VALID,0,VALID,92.1115,VALID,0,VALID,22.6225,VALID,98,VALID,0,
2009-10-25, 00:52:04,VALID,1010.97,VALID,0,VALID,92.1115,VALID,0,VALID,22.6242,VALID,62,VALID,0,
2009-10-25, 00:53:04,VALID,1010.99,VALID,0,VALID,92.1039,VALID,0,VALID,22.603,VALID,93,VALID,0,
2009-10-25, 00:54:04,VALID,1011,VALID,0,VALID,92.1039,VALID,0,VALID,22.6047,VALID,72,VALID,0.285156,
2009-10-25, 00:55:04,VALID,1010.98,VALID,0,VALID,92.1115,VALID,0,VALID,22.5835,VALID,70,VALID,0.00195313,
2009-10-25, 00:56:04,VALID,1010.98,VALID,0,VALID,92.1344,VALID,0,VALID,22.5835,VALID,69,VALID,0.00585938,
2009-10-25, 00:57:04,VALID,1010.98,VALID,0,VALID,92.1191,VALID,0,VALID,22.5835,VALID,53,VALID,0,
2009-10-25, 00:58:04,VALID,1010.94,VALID,0,VALID,92.1115,VALID,0,VALID,22.5835,VALID,17,VALID,0.507031,
2009-10-25, 00:59:04,VALID,1010.97,VALID,0,VALID,92.0962,VALID,0,VALID,22.5852,VALID,6,VALID,0.05,
2009-10-25, 01:00:04,VALID,1010.95,VALID,0,VALID,92.1267,VALID,0,VALID,22.564,VALID,358,VALID,0.593359,
2009-10-25, 01:01:04,VALID,1010.94,VALID,0,VALID,92.1191,VALID,0,VALID,22.564,VALID,62,VALID,0.145313,
2009-10-25, 01:02:04,VALID,1010.91,VALID,0,VALID,92.1191,VALID,0,VALID,22.6047,VALID,52,VALID,0.569141,
2009-10-25, 01:03:04,VALID,1010.89,VALID,0,VALID,92.1344,VALID,0,VALID,22.5835,VALID,90,VALID,0.486719,
2009-10-25, 01:04:04,VALID,1010.84,VALID,0,VALID,92.1191,VALID,0,VALID,22.6047,VALID,33,VALID,0.369531,
2009-10-25, 01:05:04,VALID,1010.82,VALID,0,VALID,92.1191,VALID,0,VALID,22.5835,VALID,18,VALID,0.707812,
2009-10-25, 01:06:04,VALID,1010.79,VALID,0,VALID,92.142,VALID,0,VALID,22.5835,VALID,86,VALID,0.654297,
2009-10-25, 01:07:04,VALID,1010.77,VALID,0,VALID,92.1572,VALID,0,VALID,22.603,VALID,77,VALID,0.703906,
2009-10-25, 01:08:04,VALID,1010.77,VALID,0,VALID,92.142,VALID,0,VALID,22.5835,VALID,74,VALID,0.784766,
2009-10-25, 01:09:04,VALID,1010.75,VALID,0,VALID,92.1344,VALID,0,VALID,22.603,VALID,65,VALID,0.565625,
2009-10-25, 01:10:04,VALID,1010.72,VALID,0,VALID,92.1039,VALID,0,VALID,22.6242,VALID,76,VALID,0.749609,
2009-10-25, 01:11:04,VALID,1010.71,VALID,0,VALID,92.0886,VALID,0,VALID,22.603,VALID,107,VALID,0.471094,
2009-10-25, 01:12:04,VALID,1010.66,VALID,0,VALID,92.0733,VALID,0,VALID,22.603,VALID,101,VALID,0.720703,
2009-10-25, 01:13:04,VALID,1010.67,VALID,0,VALID,92.081,VALID,0,VALID,22.6225,VALID,77,VALID,0.557031,
2009-10-25, 01:14:04,VALID,1010.64,VALID,0,VALID,92.0886,VALID,0,VALID,22.6225,VALID,54,VALID,0.602734,
2009-10-25, 01:15:04,VALID,1010.64,VALID,0,VALID,92.0505,VALID,0,VALID,22.6225,VALID,64,VALID,0.757813,
2009-10-25, 01:16:04,VALID,1010.64,VALID,0,VALID,92.0276,VALID,0,VALID,22.6225,VALID,80,VALID,1.06094,
2009-10-25, 01:17:04,VALID,1010.62,VALID,0,VALID,91.9971,VALID,0,VALID,22.642,VALID,68,VALID,0.525781,
2009-10-25, 01:18:04,VALID,1010.61,VALID,0,VALID,91.9742,VALID,0,VALID,22.6225,VALID,101,VALID,1.13125,
2009-10-25, 01:19:04,VALID,1010.63,VALID,0,VALID,91.959,VALID,0,VALID,22.6632,VALID,50,VALID,0.547656,
2009-10-25, 01:20:04,VALID,1010.62,VALID,0,VALID,91.9742,VALID,0,VALID,22.642,VALID,72,VALID,0.602344,
2009-10-25, 01:21:04,VALID,1010.61,VALID,0,VALID,91.9437,VALID,0,VALID,22.6632,VALID,83,VALID,0,
2009-10-25, 01:22:04,VALID,1010.57,VALID,0,VALID,91.9513,VALID,0,VALID,22.6614,VALID,69,VALID,0.266406,
2009-10-25, 01:23:04,VALID,1010.57,VALID,0,VALID,91.9513,VALID,0,VALID,22.642,VALID,70,VALID,0.700391,
2009-10-25, 01:24:04,VALID,1010.54,VALID,0,VALID,91.9361,VALID,0,VALID,22.6614,VALID,96,VALID,0.484375,
2009-10-25, 01:25:04,VALID,1010.5,VALID,0,VALID,91.9513,VALID,0,VALID,22.6614,VALID,82,VALID,0.433984,
2009-10-25, 01:26:04,VALID,1010.46,VALID,0,VALID,91.9361,VALID,0,VALID,22.6826,VALID,92,VALID,0.7375,
2009-10-25, 01:27:04,VALID,1010.43,VALID,0,VALID,91.9437,VALID,0,VALID,22.6826,VALID,91,VALID,0.926953,
2009-10-25, 01:28:04,VALID,1010.43,VALID,0,VALID,91.9208,VALID,0,VALID,22.6809,VALID,104,VALID,0.952344,
2009-10-25, 01:29:04,VALID,1010.37,VALID,0,VALID,91.9132,VALID,0,VALID,22.6809,VALID,104,VALID,1.11836,
2009-10-25, 01:30:04,VALID,1010.33,VALID,0,VALID,91.9056,VALID,0,VALID,22.6809,VALID,104,VALID,1.00625,
2009-10-25, 01:31:04,VALID,1010.31,VALID,0,VALID,91.8751,VALID,0,VALID,22.6614,VALID,99,VALID,1.18828,
2009-10-25, 01:32:04,VALID,1010.24,VALID,0,VALID,91.8598,VALID,0,VALID,22.6809,VALID,104,VALID,1.1293,
2009-10-25, 01:33:04,VALID,1010.25,VALID,0,VALID,91.837,VALID,0,VALID,22.6826,VALID,95,VALID,1.65313,
2009-10-25, 01:34:04,VALID,1010.18,VALID,0,VALID,91.8064,VALID,0,VALID,22.6614,VALID,94,VALID,1.25703,
2009-10-25, 01:35:04,VALID,1010.16,VALID,0,VALID,91.7988,VALID,0,VALID,22.6826,VALID,99,VALID,1.35898,
2009-10-25, 01:36:04,VALID,1010.17,VALID,0,VALID,91.7531,VALID,0,VALID,22.6614,VALID,92,VALID,1.15,
2009-10-25, 01:37:04,VALID,1010.15,VALID,0,VALID,91.7378,VALID,0,VALID,22.6614,VALID,101,VALID,1.22812,
2009-10-25, 01:38:04,VALID,1010.16,VALID,0,VALID,91.7531,VALID,0,VALID,22.6809,VALID,93,VALID,0.819922,
2009-10-25, 01:39:04,VALID,1010.14,VALID,0,VALID,91.7378,VALID,0,VALID,22.6614,VALID,84,VALID,0.602734,
2009-10-25, 01:40:04,VALID,1010.11,VALID,0,VALID,91.7607,VALID,0,VALID,22.6614,VALID,74,VALID,1.23047,
2009-10-25, 01:41:04,VALID,1010.11,VALID,0,VALID,91.7531,VALID,0,VALID,22.6826,VALID,79,VALID,0.578516,
2009-10-25, 01:42:04,VALID,1010.11,VALID,0,VALID,91.7683,VALID,0,VALID,22.6614,VALID,43,VALID,0.825391,
2009-10-25, 01:43:04,VALID,1010.11,VALID,0,VALID,91.7607,VALID,0,VALID,22.642,VALID,57,VALID,0.527734,
2009-10-25, 01:44:04,VALID,1010.1,VALID,0,VALID,91.7607,VALID,0,VALID,22.642,VALID,60,VALID,0.177344,
2009-10-25, 01:45:04,VALID,1010.1,VALID,0,VALID,91.7912,VALID,0,VALID,22.642,VALID,50,VALID,0.279297,
2009-10-25, 01:46:04,VALID,1010.12,VALID,0,VALID,91.7988,VALID,0,VALID,22.6225,VALID,37,VALID,0.372656,
2009-10-25, 01:47:04,VALID,1010.12,VALID,0,VALID,91.8064,VALID,0,VALID,22.6242,VALID,39,VALID,0.439063,
2009-10-25, 01:48:04,VALID,1010.12,VALID,0,VALID,91.7988,VALID,0,VALID,22.603,VALID,55,VALID,0.274609,
2009-10-25, 01:49:04,VALID,1010.1,VALID,0,VALID,91.8141,VALID,0,VALID,22.6242,VALID,55,VALID,0,
2009-10-25, 01:50:04,VALID,1010.12,VALID,0,VALID,91.837,VALID,0,VALID,22.6225,VALID,55,VALID,0,
2009-10-25, 01:51:04,VALID,1010.11,VALID,0,VALID,91.8446,VALID,0,VALID,22.603,VALID,55,VALID,0.00429688,
2009-10-25, 01:52:04,VALID,1010.13,VALID,0,VALID,91.8522,VALID,0,VALID,22.603,VALID,3,VALID,0.247266,
2009-10-25, 01:53:04,VALID,1010.15,VALID,0,VALID,91.8751,VALID,0,VALID,22.603,VALID,3,VALID,0.164453,
2009-10-25, 01:54:04,VALID,1010.15,VALID,0,VALID,91.8751,VALID,0,VALID,22.6242,VALID,353,VALID,0.203906,
2009-10-25, 01:55:04,VALID,1010.17,VALID,0,VALID,91.898,VALID,0,VALID,22.6242,VALID,353,VALID,0,
2009-10-25, 01:56:04,VALID,1010.15,VALID,0,VALID,91.898,VALID,0,VALID,22.6242,VALID,353,VALID,0.637891,
2009-10-25, 01:57:04,VALID,1010.14,VALID,0,VALID,91.898,VALID,0,VALID,22.6047,VALID,353,VALID,0.0984375,
2009-10-25, 01:58:04,VALID,1010.14,VALID,0,VALID,91.8903,VALID,0,VALID,22.5835,VALID,353,VALID,0,
2009-10-25, 01:59:04,VALID,1010.11,VALID,0,VALID,91.9285,VALID,0,VALID,22.5835,VALID,353,VALID,0,
2009-10-25, 02:00:04,VALID,1010.11,VALID,0,VALID,91.9742,VALID,0,VALID,22.6047,VALID,353,VALID,0,
2009-10-25, 02:01:04,VALID,1010.12,VALID,0,VALID,91.9971,VALID,0,VALID,22.5852,VALID,353,VALID,0,
2009-10-25, 02:02:04,VALID,1010.12,VALID,0,VALID,91.9971,VALID,0,VALID,22.5852,VALID,353,VALID,0,
2009-10-25, 02:03:04,VALID,1010.13,VALID,0,VALID,92.0428,VALID,0,VALID,22.5852,VALID,353,VALID,0,
2009-10-25, 02:04:04,VALID,1010.1,VALID,0,VALID,92.0123,VALID,0,VALID,22.5658,VALID,353,VALID,0.132813,
2009-10-25, 02:05:04,VALID,1010.12,VALID,0,VALID,92.081,VALID,0,VALID,22.564,VALID,353,VALID,0.00664063,
2009-10-25, 02:06:04,VALID,1010.06,VALID,0,VALID,92.1039,VALID,0,VALID,22.564,VALID,353,VALID,0,
2009-10-25, 02:07:04,VALID,1010.06,VALID,0,VALID,92.1344,VALID,0,VALID,22.5658,VALID,353,VALID,0,
2009-10-25, 02:08:04,VALID,1010.02,VALID,0,VALID,92.1344,VALID,0,VALID,22.5658,VALID,353,VALID,0,
2009-10-25, 02:09:04,VALID,1010.03,VALID,0,VALID,92.142,VALID,0,VALID,22.5658,VALID,353,VALID,0,
2009-10-25, 02:10:04,VALID,1010.01,VALID,0,VALID,92.142,VALID,0,VALID,22.5251,VALID,353,VALID,0,
2009-10-25, 02:11:04,VALID,1010.01,VALID,0,VALID,92.1572,VALID,0,VALID,22.5463,VALID,353,VALID,0,
2009-10-25, 02:12:04,VALID,1010.02,VALID,0,VALID,92.1572,VALID,0,VALID,22.5268,VALID,14,VALID,0,
2009-10-25, 02:13:04,VALID,1010.03,VALID,0,VALID,92.1877,VALID,0,VALID,22.5268,VALID,38,VALID,0,
2009-10-25, 02:14:04,VALID,1010.01,VALID,0,VALID,92.1801,VALID,0,VALID,22.5056,VALID,54,VALID,0,
2009-10-25, 02:15:04,VALID,1010.01,VALID,0,VALID,92.1801,VALID,0,VALID,22.5073,VALID,53,VALID,0,
2009-10-25, 02:16:04,VALID,1010,VALID,0,VALID,92.1801,VALID,0,VALID,22.5268,VALID,74,VALID,0,
2009-10-25, 02:17:04,VALID,1010.02,VALID,0,VALID,92.1954,VALID,0,VALID,22.5073,VALID,74,VALID,0,
2009-10-25, 02:18:04,VALID,1010,VALID,0,VALID,92.1954,VALID,0,VALID,22.4861,VALID,74,VALID,0,
2009-10-25, 02:19:04,VALID,1010,VALID,0,VALID,92.203,VALID,0,VALID,22.5073,VALID,74,VALID,0,
2009-10-25, 02:20:04,VALID,1010,VALID,0,VALID,92.2259,VALID,0,VALID,22.5073,VALID,74,VALID,0,
2009-10-25, 02:21:04,VALID,1009.98,VALID,0,VALID,92.2259,VALID,0,VALID,22.4667,VALID,74,VALID,0,
2009-10-25, 02:22:04,VALID,1009.98,VALID,0,VALID,92.203,VALID,0,VALID,22.4861,VALID,74,VALID,0,
2009-10-25, 02:23:04,VALID,1009.96,VALID,0,VALID,92.1954,VALID,0,VALID,22.4667,VALID,39,VALID,0.357422,
2009-10-25, 02:24:04,VALID,1009.94,VALID,0,VALID,92.1954,VALID,0,VALID,22.4861,VALID,55,VALID,0.446484,
2009-10-25, 02:25:04,VALID,1009.92,VALID,0,VALID,92.203,VALID,0,VALID,22.4861,VALID,74,VALID,0.143359,
2009-10-25, 02:26:04,VALID,1009.89,VALID,0,VALID,92.2182,VALID,0,VALID,22.5073,VALID,75,VALID,0.432031,
2009-10-25, 02:27:04,VALID,1009.88,VALID,0,VALID,92.2106,VALID,0,VALID,22.4861,VALID,74,VALID,0.2125,
2009-10-25, 02:28:04,VALID,1009.9,VALID,0,VALID,92.203,VALID,0,VALID,22.4861,VALID,41,VALID,0.276953,
2009-10-25, 02:29:04,VALID,1009.88,VALID,0,VALID,92.1877,VALID,0,VALID,22.5268,VALID,41,VALID,0,
2009-10-25, 02:30:04,VALID,1009.88,VALID,0,VALID,92.1877,VALID,0,VALID,22.5073,VALID,41,VALID,0,
2009-10-25, 02:31:04,VALID,1009.9,VALID,0,VALID,92.1954,VALID,0,VALID,22.5073,VALID,41,VALID,0,
2009-10-25, 02:32:04,VALID,1009.89,VALID,0,VALID,92.1801,VALID,0,VALID,22.4861,VALID,41,VALID,0,
2009-10-25, 02:33:04,VALID,1009.9,VALID,0,VALID,92.1877,VALID,0,VALID,22.4667,VALID,41,VALID,0,
2009-10-25, 02:34:04,VALID,1009.89,VALID,0,VALID,92.1954,VALID,0,VALID,22.5073,VALID,41,VALID,0,
2009-10-25, 02:35:04,VALID,1009.93,VALID,0,VALID,92.1725,VALID,0,VALID,22.4861,VALID,41,VALID,0,
2009-10-25, 02:36:04,VALID,1009.89,VALID,0,VALID,92.1572,VALID,0,VALID,22.4861,VALID,41,VALID,0,
2009-10-25, 02:37:04,VALID,1009.88,VALID,0,VALID,92.1572,VALID,0,VALID,22.5073,VALID,41,VALID,0,
2009-10-25, 02:38:04,VALID,1009.92,VALID,0,VALID,92.1649,VALID,0,VALID,22.4667,VALID,41,VALID,0,
2009-10-25, 02:39:04,VALID,1009.9,VALID,0,VALID,92.1877,VALID,0,VALID,22.4861,VALID,41,VALID,0,
2009-10-25, 02:40:04,VALID,1009.9,VALID,0,VALID,92.1649,VALID,0,VALID,22.4861,VALID,41,VALID,0,
2009-10-25, 02:41:04,VALID,1009.92,VALID,0,VALID,92.1801,VALID,0,VALID,22.4861,VALID,41,VALID,0,
2009-10-25, 02:42:04,VALID,1009.92,VALID,0,VALID,92.1801,VALID,0,VALID,22.4861,VALID,41,VALID,0,
2009-10-25, 02:43:04,VALID,1009.9,VALID,0,VALID,92.1649,VALID,0,VALID,22.5073,VALID,41,VALID,0,
2009-10-25, 02:44:04,VALID,1009.91,VALID,0,VALID,92.1877,VALID,0,VALID,22.4861,VALID,41,VALID,0,
2009-10-25, 02:45:04,VALID,1009.9,VALID,0,VALID,92.1725,VALID,0,VALID,22.4861,VALID,41,VALID,0,
2009-10-25, 02:46:04,VALID,1009.9,VALID,0,VALID,92.1649,VALID,0,VALID,22.4667,VALID,41,VALID,0,
2009-10-25, 02:47:04,VALID,1009.9,VALID,0,VALID,92.1649,VALID,0,VALID,22.4667,VALID,57,VALID,0,
2009-10-25, 02:48:04,VALID,1009.87,VALID,0,VALID,92.1801,VALID,0,VALID,22.4667,VALID,74,VALID,0,
2009-10-25, 02:49:04,VALID,1009.88,VALID,0,VALID,92.1725,VALID,0,VALID,22.4861,VALID,74,VALID,0,
2009-10-25, 02:50:04,VALID,1009.89,VALID,0,VALID,92.1801,VALID,0,VALID,22.4667,VALID,72,VALID,0,
2009-10-25, 02:51:04,VALID,1009.86,VALID,0,VALID,92.1801,VALID,0,VALID,22.5073,VALID,72,VALID,0,
2009-10-25, 02:52:04,VALID,1009.88,VALID,0,VALID,92.1649,VALID,0,VALID,22.4861,VALID,72,VALID,0,
2009-10-25, 02:53:04,VALID,1009.83,VALID,0,VALID,92.1801,VALID,0,VALID,22.5073,VALID,72,VALID,0,
2009-10-25, 02:54:04,VALID,1009.85,VALID,0,VALID,92.1649,VALID,0,VALID,22.4667,VALID,67,VALID,0.285156,
2009-10-25, 02:55:04,VALID,1009.81,VALID,0,VALID,92.1649,VALID,0,VALID,22.4667,VALID,76,VALID,0.48125,
2009-10-25, 02:56:04,VALID,1009.83,VALID,0,VALID,92.1496,VALID,0,VALID,22.4667,VALID,69,VALID,0.453125,
2009-10-25, 02:57:04,VALID,1009.81,VALID,0,VALID,92.1496,VALID,0,VALID,22.4861,VALID,88,VALID,0.994141,
2009-10-25, 02:58:04,VALID,1009.78,VALID,0,VALID,92.1496,VALID,0,VALID,22.4861,VALID,45,VALID,0.827734,
2009-10-25, 02:59:04,VALID,1009.73,VALID,0,VALID,92.1496,VALID,0,VALID,22.5056,VALID,89,VALID,0.971094,
2009-10-25, 03:00:04,VALID,1009.74,VALID,0,VALID,92.1344,VALID,0,VALID,22.5056,VALID,73,VALID,0.478906,
2009-10-25, 03:01:04,VALID,1009.75,VALID,0,VALID,92.0962,VALID,0,VALID,22.5056,VALID,89,VALID,0.664844,
2009-10-25, 03:02:04,VALID,1009.73,VALID,0,VALID,92.1115,VALID,0,VALID,22.5056,VALID,79,VALID,0.942187,
2009-10-25, 03:03:04,VALID,1009.76,VALID,0,VALID,92.0962,VALID,0,VALID,22.5251,VALID,60,VALID,0.535547,
2009-10-25, 03:04:04,VALID,1009.7,VALID,0,VALID,92.081,VALID,0,VALID,22.5251,VALID,62,VALID,0.803516,
2009-10-25, 03:05:04,VALID,1009.7,VALID,0,VALID,92.0657,VALID,0,VALID,22.5268,VALID,110,VALID,0.785937,
2009-10-25, 03:06:04,VALID,1009.69,VALID,0,VALID,92.0276,VALID,0,VALID,22.5463,VALID,80,VALID,0.826172,
2009-10-25, 03:07:04,VALID,1009.68,VALID,0,VALID,92.0123,VALID,0,VALID,22.5251,VALID,22,VALID,0.727344,
2009-10-25, 03:08:04,VALID,1009.68,VALID,0,VALID,91.9895,VALID,0,VALID,22.5251,VALID,58,VALID,0.679297,
2009-10-25, 03:09:04,VALID,1009.7,VALID,0,VALID,91.9742,VALID,0,VALID,22.5056,VALID,80,VALID,0.366016,
2009-10-25, 03:10:04,VALID,1009.71,VALID,0,VALID,91.959,VALID,0,VALID,22.5056,VALID,89,VALID,0.192969,
2009-10-25, 03:11:04,VALID,1009.68,VALID,0,VALID,91.9742,VALID,0,VALID,22.4861,VALID,89,VALID,0.487109,
2009-10-25, 03:12:04,VALID,1009.69,VALID,0,VALID,91.9361,VALID,0,VALID,22.4861,VALID,89,VALID,0.461719,
2009-10-25, 03:13:04,VALID,1009.66,VALID,0,VALID,91.9361,VALID,0,VALID,22.4861,VALID,48,VALID,0.491797,
2009-10-25, 03:14:04,VALID,1009.64,VALID,0,VALID,91.9285,VALID,0,VALID,22.4861,VALID,64,VALID,0.312891,
2009-10-25, 03:15:04,VALID,1009.67,VALID,0,VALID,91.9056,VALID,0.105969,VALID,22.4878,VALID,74,VALID,0.326562,
2009-10-25, 03:16:04,VALID,1009.67,VALID,0,VALID,91.898,VALID,0,VALID,22.4667,VALID,79,VALID,0.478125,
2009-10-25, 03:17:04,VALID,1009.71,VALID,0,VALID,91.9208,VALID,0,VALID,22.4684,VALID,92,VALID,0.219531,
2009-10-25, 03:18:04,VALID,1009.7,VALID,0,VALID,91.9132,VALID,0,VALID,22.4667,VALID,92,VALID,0.00234375,
2009-10-25, 03:19:04,VALID,1009.71,VALID,0,VALID,91.9056,VALID,0,VALID,22.4667,VALID,69,VALID,0.300391,
2009-10-25, 03:20:04,VALID,1009.73,VALID,0,VALID,91.898,VALID,0,VALID,22.4667,VALID,69,VALID,0,
2009-10-25, 03:21:04,VALID,1009.72,VALID,0,VALID,91.9056,VALID,0,VALID,22.4878,VALID,69,VALID,0,
2009-10-25, 03:22:04,VALID,1009.73,VALID,0,VALID,91.9056,VALID,0,VALID,22.4667,VALID,69,VALID,0,
2009-10-25, 03:23:04,VALID,1009.71,VALID,0,VALID,91.9056,VALID,0,VALID,22.4472,VALID,69,VALID,0,
2009-10-25, 03:24:04,VALID,1009.73,VALID,0,VALID,91.8598,VALID,0,VALID,22.4472,VALID,69,VALID,0,
2009-10-25, 03:25:04,VALID,1009.75,VALID,0,VALID,91.8751,VALID,0,VALID,22.4472,VALID,69,VALID,0,
2009-10-25, 03:26:04,VALID,1009.73,VALID,0,VALID,91.898,VALID,0,VALID,22.4472,VALID,69,VALID,0.217187,
2009-10-25, 03:27:04,VALID,1009.75,VALID,0,VALID,91.8598,VALID,0,VALID,22.4472,VALID,69,VALID,0.317578,
2009-10-25, 03:28:04,VALID,1009.78,VALID,0,VALID,91.8598,VALID,0.105969,VALID,22.4472,VALID,69,VALID,0,
2009-10-25, 03:29:04,VALID,1009.79,VALID,0,VALID,91.8675,VALID,0,VALID,22.4472,VALID,69,VALID,0,
2009-10-25, 03:30:04,VALID,1009.8,VALID,0,VALID,91.8522,VALID,0,VALID,22.4277,VALID,74,VALID,0.40625,
2009-10-25, 03:31:04,VALID,1009.79,VALID,0,VALID,91.8598,VALID,0,VALID,22.4472,VALID,78,VALID,0.39375,
2009-10-25, 03:32:04,VALID,1009.8,VALID,0,VALID,91.8293,VALID,0,VALID,22.4489,VALID,81,VALID,0.122266,
2009-10-25, 03:33:04,VALID,1009.8,VALID,0,VALID,91.837,VALID,0,VALID,22.4082,VALID,81,VALID,0,
2009-10-25, 03:34:04,VALID,1009.82,VALID,0,VALID,91.8293,VALID,0,VALID,22.4082,VALID,81,VALID,0,
2009-10-25, 03:35:04,VALID,1009.81,VALID,0,VALID,91.8141,VALID,0,VALID,22.3887,VALID,81,VALID,0,
2009-10-25, 03:36:04,VALID,1009.8,VALID,0,VALID,91.8141,VALID,0,VALID,22.3498,VALID,81,VALID,0,
2009-10-25, 03:37:04,VALID,1009.8,VALID,0,VALID,91.8141,VALID,0,VALID,22.3515,VALID,81,VALID,0,
2009-10-25, 03:38:04,VALID,1009.8,VALID,0,VALID,91.8141,VALID,0,VALID,22.2914,VALID,81,VALID,0,
2009-10-25, 03:39:04,VALID,1009.8,VALID,0,VALID,91.8217,VALID,0,VALID,22.293,VALID,81,VALID,0,
2009-10-25, 03:40:04,VALID,1009.78,VALID,0,VALID,91.837,VALID,0,VALID,22.2719,VALID,81,VALID,0,
2009-10-25, 03:41:04,VALID,1009.79,VALID,0,VALID,91.8522,VALID,0,VALID,22.2524,VALID,81,VALID,0,
2009-10-25, 03:42:04,VALID,1009.77,VALID,0,VALID,91.837,VALID,0,VALID,22.2329,VALID,81,VALID,0,
2009-10-25, 03:43:04,VALID,1009.76,VALID,0,VALID,91.8446,VALID,0,VALID,22.2134,VALID,81,VALID,0,
2009-10-25, 03:44:04,VALID,1009.77,VALID,0,VALID,91.8827,VALID,0,VALID,22.2134,VALID,81,VALID,0,
2009-10-25, 03:45:04,VALID,1009.76,VALID,0,VALID,91.8903,VALID,0,VALID,22.2134,VALID,81,VALID,0,
2009-10-25, 03:46:04,VALID,1009.76,VALID,0,VALID,91.898,VALID,0,VALID,22.194,VALID,81,VALID,0,
2009-10-25, 03:47:04,VALID,1009.75,VALID,0,VALID,91.9361,VALID,0,VALID,22.1745,VALID,81,VALID,0,
2009-10-25, 03:48:04,VALID,1009.74,VALID,0,VALID,91.9437,VALID,0,VALID,22.1745,VALID,81,VALID,0,
2009-10-25, 03:49:04,VALID,1009.72,VALID,0,VALID,91.9513,VALID,0,VALID,22.1745,VALID,81,VALID,0,
2009-10-25, 03:50:04,VALID,1009.74,VALID,0,VALID,91.9513,VALID,0,VALID,22.1745,VALID,81,VALID,0,
2009-10-25, 03:51:04,VALID,1009.74,VALID,0,VALID,91.9742,VALID,0,VALID,22.1762,VALID,81,VALID,0,
2009-10-25, 03:52:04,VALID,1009.73,VALID,0,VALID,91.9895,VALID,0,VALID,22.1567,VALID,81,VALID,0,